• en France
  • Liste des pays
  • À 7 jours
  • Température de l'eau
  • Carte satellitaire
  • Carte météo
  • Widgets météo
  • user-avatar
    Se connecter

    Météo par heure à Lebedki

    Ce jour, 19 Août, Dimanche

    Heure Température Précipitation Vent Pression Humidité
    00:00 +17°C° 0 mm 2 m/s 751 mmHg 72%
    01:00 +16°C° 0 mm 1 m/s 752 mmHg 73%
    02:00 +16°C° 0 mm 1 m/s 752 mmHg 75%
    03:00 +16°C° 0 mm 1 m/s 752 mmHg 76%
    04:00 +15°C° 0 mm 1 m/s 752 mmHg 77%
    05:00 +15°C° 0 mm 1 m/s 752 mmHg 78%
    06:00 +18°C° 0 mm 1 m/s 752 mmHg 72%
    07:00 +20°C° 0 mm 1 m/s 752 mmHg 66%
    08:00 +22°C° 0 mm 1 m/s 752 mmHg 60%
    09:00 +23°C° 0 mm 2 m/s 752 mmHg 55%
    10:00 +24°C° 0 mm 2 m/s 752 mmHg 51%
    11:00 +25°C° 0 mm 2 m/s 752 mmHg 46%
    12:00 +26°C° 0 mm 2 m/s 751 mmHg 45%
    13:00 +26°C° 0 mm 2 m/s 751 mmHg 43%
    14:00 +27°C° 0 mm 2 m/s 751 mmHg 41%
    15:00 +26°C° 0 mm 2 m/s 751 mmHg 44%
    16:00 +26°C° 0 mm 1 m/s 750 mmHg 46%
    17:00 +26°C° 0 mm 1 m/s 750 mmHg 48%
    18:00 +24°C° 0 mm 1 m/s 750 mmHg 51%
    19:00 +22°C° 0 mm 1 m/s 750 mmHg 55%
    20:00 +21°C° 0 mm 1 m/s 750 mmHg 58%
    21:00 +19°C° 0 mm 2 m/s 750 mmHg 59%
    22:00 +19°C° 0 mm 2 m/s 750 mmHg 61%
    23:00 +18°C° 0 mm 2 m/s 750 mmHg 63%

    Demain, 20 Août, Lundi

    Heure Température Précipitation Vent Pression Humidité
    00:00 +18°C° 0 mm 2 m/s 750 mmHg 65%
    01:00 +17°C° 0 mm 2 m/s 750 mmHg 66%
    02:00 +17°C° 0 mm 2 m/s 750 mmHg 68%
    03:00 +17°C° 0 mm 2 m/s 750 mmHg 70%
    04:00 +16°C° 0 mm 2 m/s 750 mmHg 72%
    05:00 +16°C° 0 mm 2 m/s 750 mmHg 73%
    06:00 +18°C° 0 mm 2 m/s 750 mmHg 68%
    07:00 +20°C° 0 mm 2 m/s 750 mmHg 63%
    08:00 +22°C° 0 mm 3 m/s 750 mmHg 57%
    09:00 +24°C° 0 mm 3 m/s 750 mmHg 53%
    10:00 +25°C° 0 mm 3 m/s 749 mmHg 48%
    11:00 +27°C° 0 mm 3 m/s 749 mmHg 44%
    12:00 +27°C° 0 mm 3 m/s 749 mmHg 43%
    13:00 +28°C° 0 mm 3 m/s 749 mmHg 41%
    14:00 +28°C° 0 mm 3 m/s 748 mmHg 40%
    15:00 +28°C° 0 mm 3 m/s 748 mmHg 43%
    16:00 +27°C° 0 mm 3 m/s 748 mmHg 47%
    17:00 +27°C° 0 mm 2 m/s 747 mmHg 50%
    18:00 +25°C° 0 mm 2 m/s 747 mmHg 53%
    19:00 +23°C° 0 mm 2 m/s 747 mmHg 56%
    20:00 +21°C° 0 mm 3 m/s 747 mmHg 59%
    21:00 +20°C° 0 mm 3 m/s 747 mmHg 60%
    22:00 +20°C° 0 mm 3 m/s 747 mmHg 61%
    23:00 +19°C° 0 mm 3 m/s 747 mmHg 62%

    Après-demain, 21 Août, Mardi

    Heure Température Précipitation Vent Pression Humidité
    00:00 +19°C° 0 mm 3 m/s 747 mmHg 62%
    01:00 +18°C° 0 mm 3 m/s 747 mmHg 62%
    02:00 +18°C° 0 mm 3 m/s 746 mmHg 61%
    03:00 +18°C° 0 mm 3 m/s 746 mmHg 62%
    04:00 +17°C° 0 mm 3 m/s 746 mmHg 62%
    05:00 +17°C° 0 mm 3 m/s 746 mmHg 63%
    06:00 +19°C° 0 mm 4 m/s 746 mmHg 59%
    07:00 +21°C° 0 mm 4 m/s 746 mmHg 55%
    08:00 +23°C° 0 mm 5 m/s 746 mmHg 52%
    09:00 +25°C° 0 mm 5 m/s 745 mmHg 48%
    10:00 +27°C° 0 mm 6 m/s 745 mmHg 44%
    11:00 +28°C° 0 mm 6 m/s 745 mmHg 40%
    12:00 +29°C° 0 mm 7 m/s 745 mmHg 40%
    13:00 +29°C° 0 mm 7 m/s 744 mmHg 40%
    14:00 +29°C° 0 mm 7 m/s 744 mmHg 40%
    15:00 +29°C° 0 mm 6 m/s 743 mmHg 44%
    16:00 +28°C° 0 mm 5 m/s 743 mmHg 48%
    17:00 +27°C° 0 mm 4 m/s 743 mmHg 53%
    18:00 +26°C° 0,2 mm 4 m/s 743 mmHg 59%
    19:00 +23°C° 0,2 mm 4 m/s 743 mmHg 65%
    20:00 +22°C° 0,2 mm 4 m/s 744 mmHg 71%
    21:00 +21°C° 0,1 mm 4 m/s 744 mmHg 76%
    22:00 +19°C° 0,1 mm 3 m/s 744 mmHg 81%
    23:00 +18°C° 0,1 mm 3 m/s 744 mmHg 86%

    22 Août, Mercredi

    Heure Température Précipitation Vent Pression Humidité
    00:00 +17°C° 0 mm 3 m/s 745 mmHg 87%
    01:00 +16°C° 0 mm 3 m/s 745 mmHg 88%
    02:00 +14°C° 0 mm 3 m/s 745 mmHg 88%
    03:00 +14°C° 0 mm 3 m/s 745 mmHg 88%
    04:00 +13°C° 0 mm 3 m/s 746 mmHg 87%
    05:00 +13°C° 0 mm 3 m/s 746 mmHg 87%
    06:00 +14°C° 0 mm 4 m/s 747 mmHg 78%
    07:00 +15°C° 0 mm 4 m/s 747 mmHg 70%
    08:00 +17°C° 0 mm 5 m/s 748 mmHg 62%
    09:00 +19°C° 0 mm 5 m/s 748 mmHg 57%
    10:00 +20°C° 0 mm 5 m/s 748 mmHg 52%
    11:00 +21°C° 0 mm 5 m/s 748 mmHg 46%
    12:00 +21°C° 0 mm 5 m/s 749 mmHg 45%
    13:00 +21°C° 0 mm 5 m/s 749 mmHg 44%
    14:00 +21°C° 0 mm 5 m/s 749 mmHg 43%
    15:00 +21°C° 0 mm 5 m/s 749 mmHg 45%
    16:00 +20°C° 0 mm 4 m/s 749 mmHg 48%
    17:00 +20°C° 0 mm 4 m/s 749 mmHg 50%
    18:00 +18°C° 0 mm 3 m/s 750 mmHg 55%
    19:00 +17°C° 0 mm 3 m/s 750 mmHg 60%
    20:00 +15°C° 0 mm 2 m/s 751 mmHg 64%
    21:00 +14°C° 0 mm 2 m/s 751 mmHg 67%
    22:00 +14°C° 0 mm 2 m/s 751 mmHg 69%
    23:00 +13°C° 0 mm 2 m/s 752 mmHg 71%

    23 Août, Jeudi

    Heure Température Précipitation Vent Pression Humidité
    00:00 +13°C° 0 mm 2 m/s 752 mmHg 73%
    01:00 +12°C° 0 mm 2 m/s 752 mmHg 74%
    02:00 +12°C° 0 mm 2 m/s 752 mmHg 76%
    03:00 +10°C° 0 mm 2 m/s 752 mmHg 77%
    04:00 +10°C° 0 mm 2 m/s 753 mmHg 78%
    05:00 +11°C° 0 mm 1 m/s 753 mmHg 78%
    06:00 +13°C° 0 mm 1 m/s 753 mmHg 72%
    07:00 +14°C° 0 mm 1 m/s 753 mmHg 65%
    08:00 +16°C° 0 mm 1 m/s 753 mmHg 58%
    09:00 +18°C° 0 mm 1 m/s 753 mmHg 53%
    10:00 +20°C° 0 mm 1 m/s 753 mmHg 48%
    11:00 +21°C° 0 mm 1 m/s 753 mmHg 43%
    12:00 +22°C° 0 mm 1 m/s 753 mmHg 42%
    13:00 +22°C° 0 mm 1 m/s 753 mmHg 40%
    14:00 +23°C° 0 mm 1 m/s 752 mmHg 38%
    15:00 +23°C° 0 mm 1 m/s 752 mmHg 39%
    16:00 +20°C° 0 mm 0 m/s 752 mmHg 41%
    17:00 +20°C° 0 mm 0 m/s 752 mmHg 42%
    18:00 +20°C° 0 mm 1 m/s 752 mmHg 46%
    19:00 +19°C° 0 mm 1 m/s 752 mmHg 50%
    20:00 +16°C° 0 mm 1 m/s 752 mmHg 53%
    21:00 +15°C° 0 mm 1 m/s 752 mmHg 55%
    22:00 +15°C° 0 mm 1 m/s 752 mmHg 56%
    23:00 +14°C° 0 mm 1 m/s 752 mmHg 58%

    24 Août, Vendredi

    Heure Température Précipitation Vent Pression Humidité
    00:00 +14°C° 0 mm 1 m/s 752 mmHg 59%
    01:00 +14°C° 0 mm 1 m/s 752 mmHg 61%
    02:00 +13°C° 0 mm 1 m/s 752 mmHg 62%
    03:00 +13°C° 0 mm 1 m/s 752 mmHg 64%
    04:00 +13°C° 0 mm 1 m/s 752 mmHg 65%
    05:00 +12°C° 0 mm 1 m/s 752 mmHg 67%
    06:00 +14°C° 0 mm 1 m/s 752 mmHg 62%
    07:00 +18°C° 0 mm 1 m/s 752 mmHg 57%
    08:00 +19°C° 0 mm 2 m/s 752 mmHg 51%
    09:00 +20°C° 0 mm 2 m/s 752 mmHg 47%
    10:00 +21°C° 0 mm 2 m/s 752 mmHg 43%
    11:00 +23°C° 0 mm 2 m/s 752 mmHg 39%
    12:00 +24°C° 0 mm 2 m/s 752 mmHg 38%
    13:00 +24°C° 0 mm 2 m/s 751 mmHg 37%
    14:00 +25°C° 0 mm 2 m/s 751 mmHg 35%
    15:00 +25°C° 0 mm 2 m/s 751 mmHg 38%
    16:00 +25°C° 0 mm 2 m/s 750 mmHg 41%
    17:00 +24°C° 0 mm 1 m/s 750 mmHg 44%
    18:00 +22°C° 0 mm 1 m/s 750 mmHg 47%
    19:00 +20°C° 0 mm 2 m/s 750 mmHg 50%
    20:00 +18°C° 0 mm 2 m/s 750 mmHg 53%
    21:00 +17°C° 0 mm 2 m/s 750 mmHg 55%
    22:00 +17°C° 0 mm 2 m/s 750 mmHg 57%
    23:00 +16°C° 0 mm 2 m/s 750 mmHg 58%
    Voir plus